Spencer Municipal Airport
Saturday 8:53 PM
Temperature35° (48°/16°)
Dew Point24°
Feels Like29°
Relative Humidity64
%
Visibility10
mi
Pressure1020.0
mb
Wind DirectionESE
120°
Wind Speed8
mph
Precipitation Today0.00"

Last 30 Observations

Time PresWx Temp DP Feels RH% Vsby Pressure Ceiling Direction Speed 1h Precip
8:53 PM 35° 24° 29°64
%
10
mi
1020.0
mb
ESE
120°
8
mph
0.00"
7:53 PM 40° 25° 34°55
%
10
mi
1020.0
mb
SE
140°
9
mph
0.00"
6:53 PM 46° 25° 41°43
%
10
mi
1020.0
mb
SE
130°
10
mph
0.00"
5:53 PM 47° 23° 42°39
%
10
mi
1020.0
mb
SSE
150°
11
mph
0.00"
4:53 PM 48° 22° 43°35
%
10
mi
1020.3
mb
SSE
150°
10
mph
0.00"
3:53 PM 47° 18° 44°31
%
10
mi
1021.0
mb
Variable 6
mph
0.00"
2:53 PM 46° 18° 42°32
%
10
mi
1021.7
mb
E
90°
8
mph
0.00"
1:53 PM 43° 16° 39°33
%
10
mi
1022.7
mb
E
100°
6
mph
0.00"
12:53 PM 40° 19° 36°43
%
10
mi
1023.7
mb
ENE
70°
6
mph
0.00"
11:53 AM 37° 17° 33°44
%
10
mi
1024.4
mb
E
80°
5
mph
0.00"
10:53 AM 33° 17° 27°51
%
10
mi
1024.7
mb
Variable 7
mph
0.00"
9:53 AM 30° 18° 23°60
%
10
mi
1024.7
mb
NE
40°
7
mph
0.00"
8:53 AM 26° 18° 17°71
%
10
mi
1025.4
mb
N
360°
9
mph
0.00"
7:53 AM 22° 16° 12°78
%
10
mi
1025.1
mb
NNW
340°
9
mph
0.00"
6:53 AM 19° 13° 11°77
%
10
mi
1024.7
mb
NNW
340°
6
mph
0.00"
5:53 AM 19° 14° 11°80
%
10
mi
1024.7
mb
NNE
20°
6
mph
0.00"
4:53 AM 19° 15° 11°84
%
10
mi
1024.7
mb
NNW
340°
6
mph
0.00"
3:53 AM 20° 16° 15°84
%
10
mi
1024.7
mb
NW
320°
3
mph
0.00"
2:53 AM 22° 17° 17°81
%
10
mi
1025.1
mb
NW
310°
3
mph
0.00"
1:53 AM 21° 17° 13°84
%
10
mi
1024.7
mb
NW
320°
6
mph
0.00"
12:53 AM 22° 18° 17°84
%
10
mi
1024.7
mb
NW
320°
3
mph
0.00"
11:53 PM 25° 19° 16°78
%
10
mi
1024.4
mb
NNW
340°
8
mph
0.00"
11:00 PM 27° 20° 18°75
%
10
mi
1024.7
mb
N
350°
9
mph
0.00"
10:53 PM 27° 20° 17°75
%
10
mi
1024.4
mb
N
350°
10
mph
0.00"
9:53 PM 29° 21° 18°72
%
10
mi
1024.7
mb
1,600
ft
N
350°
14
mph
0.00"
8:53 PM 30° 22° 21°71
%
10
mi
1024.4
mb
1,600
ft
NNW
340°
11
mph
0.00"
7:53 PM 30° 22° 19°71
%
10
mi
1023.7
mb
1,700
ft
N
350°
15
mph
0.00"
6:53 PM 30° 22° 18°71
%
10
mi
1023.4
mb
1,600
ft
NNW
330°
18
mph
0.00"
5:53 PM 31° 23° 20°72
%
10
mi
1022.7
mb
1,500
ft
NW
320°
16
mph
0.00"
4:53 PM 32° 23° 21°69
%
10
mi
1022.4
mb
1,700
ft
NW
310°
16
mph
0.00"